Weather History for Racine, WI

Change the Weather History Date:

Thursday, June 13, 2013

  Actual Average Record
Temperature  
Mean Temperature 64 °F -  
Max Temperature 71 °F 75 °F 95 °F (1956)
Min Temperature 57 °F 54 °F 43 °F (1968)
Degree Days  
Heating Degree Days 2    
Growing Degree Days 14 (Base 50)    
Moisture  
Dew Point 53 °F    
Average Humidity 67    
Maximum Humidity 82    
Minimum Humidity 54    
Precipitation  
Precipitation 0.00 in - - ()
Sea Level Pressure  
Sea Level Pressure 29.90 in    
Wind  
Wind Speed 13 mph (North)    
Max Wind Speed 21 mph    
Max Gust Speed 33 mph    
Visibility 10 miles    
Events      
Averages and records for this station are not official NWS values.
T = Trace of Precipitation, MM = Missing Value Source: NWS Daily Summary

Daily Weather History Graph

Daily Weather History Graph

Search for Another Location

Airport:

Trip Planner

Search our weather history database for the weather conditions in past years. The results will help you decide how hot, cold, wet, or windy it might be!

Date:

Astronomy

Jun. 13, 2013 Rise Set
Actual Time 5:12 AM CDT 8:30 PM CDT
Civil Twilight 4:37 AM CDT 9:05 PM CDT
Nautical Twilight 3:52 AM CDT 9:51 PM CDT
Astronomical Twilight 2:56 AM CDT 10:46 PM CDT
Moon 9:54 AM CDT (6/13) 11:30 PM CDT (6/13)
Length of Visible Light 16h 28m
Length of Day
15h 18m
Waxing Crescent, 22% of the Moon is Illuminated
Jun 13
Waxing Crescent
Jun 16
First Quarter
Jun 23
Full
Jun 29
Last Quarter
Jul 8
New

Hourly Weather History & Observations

Time (CDT) Temp. Dew Point Humidity Pressure Visibility Wind Dir Wind Speed Gust Speed Precip Events Conditions
12:16 AM 62.6 °F 57.2 °F 82% 29.72 in 9.0 mi NNE 12.7 mph - 0.00 in   Overcast
12:24 AM 62.6 °F 57.2 °F 82% 29.71 in 10.0 mi NNE 16.1 mph 23.0 mph 0.00 in   Overcast
12:32 AM 62.6 °F 57.2 °F 82% 29.72 in 10.0 mi North 13.8 mph - 0.00 in   Overcast
12:51 AM 62.6 °F 55.4 °F 77% 29.72 in 10.0 mi North 13.8 mph - 0.00 in   Overcast
12:53 AM 62.1 °F 55.9 °F 80% 29.72 in 10.0 mi North 11.5 mph 20.7 mph 0.00 in   Overcast
1:18 AM 60.8 °F 55.4 °F 82% 29.75 in 10.0 mi NNW 10.4 mph 19.6 mph N/A   Overcast
1:51 AM 62.6 °F 53.6 °F 72% 29.75 in 10.0 mi North 12.7 mph - N/A   Overcast
1:53 AM 62.1 °F 54.0 °F 75% 29.74 in 10.0 mi North 12.7 mph - N/A   Overcast
2:16 AM 62.6 °F 53.6 °F 72% 29.74 in 10.0 mi North 13.8 mph 19.6 mph N/A   Mostly Cloudy
2:53 AM 63.0 °F 52.0 °F 67% 29.75 in 10.0 mi NNW 11.5 mph - N/A   Mostly Cloudy
3:53 AM 64.0 °F 50.0 °F 60% 29.78 in 10.0 mi North 15.0 mph 23.0 mph N/A   Overcast
4:53 AM 64.9 °F 50.0 °F 58% 29.81 in 10.0 mi North 15.0 mph 24.2 mph N/A   Clear
5:53 AM 63.0 °F 50.0 °F 63% 29.85 in 10.0 mi North 20.7 mph 26.5 mph N/A   Clear
6:53 AM 62.1 °F 50.0 °F 65% 29.88 in 10.0 mi North 13.8 mph 24.2 mph N/A   Clear
7:53 AM 64.9 °F 51.1 °F 61% 29.90 in 10.0 mi NNE 11.5 mph - N/A   Clear
8:53 AM 69.1 °F 52.0 °F 54% 29.92 in 10.0 mi North 11.5 mph - N/A   Clear
9:53 AM 70.0 °F 53.1 °F 55% 29.94 in 10.0 mi North 15.0 mph 23.0 mph N/A   Clear
10:53 AM 69.1 °F 54.0 °F 58% 29.96 in 10.0 mi North 16.1 mph 33.4 mph N/A   Clear
11:53 AM 69.1 °F 53.1 °F 57% 29.98 in 10.0 mi NNE 16.1 mph 24.2 mph N/A   Clear
12:53 PM 68.0 °F 54.0 °F 61% 29.99 in 10.0 mi NNE 12.7 mph - N/A   Clear
1:53 PM 69.1 °F 54.0 °F 58% 30.01 in 10.0 mi North 11.5 mph - N/A   Clear
2:53 PM 69.1 °F 54.0 °F 58% 30.01 in 10.0 mi North 9.2 mph - N/A   Clear
3:53 PM 68.0 °F 53.1 °F 59% 30.02 in 10.0 mi NE 11.5 mph - N/A   Clear
4:53 PM 64.0 °F 52.0 °F 65% 30.04 in 10.0 mi NNE 15.0 mph 21.9 mph N/A   Clear
5:53 PM 64.0 °F 52.0 °F 65% 30.03 in 10.0 mi North 10.4 mph - N/A   Clear
6:53 PM 63.0 °F 51.1 °F 65% 30.04 in 10.0 mi North 9.2 mph - N/A   Clear
7:53 PM 61.0 °F 51.1 °F 70% 30.05 in 10.0 mi North 9.2 mph - N/A   Clear
8:53 PM 59.0 °F 48.9 °F 69% 30.07 in 10.0 mi North 11.5 mph - N/A   Clear
9:53 PM 57.9 °F 48.9 °F 72% 30.09 in 10.0 mi North 8.1 mph - N/A   Clear
10:53 PM 59.0 °F 48.9 °F 69% 30.09 in 10.0 mi North 10.4 mph - N/A   Clear
11:53 PM 57.9 °F 48.9 °F 72% 30.09 in 10.0 mi North 9.2 mph - N/A   Clear